Home   Weather   Geretsried   Past weeks

Flag for Germany Past Weather in Geretsried, Bavaria, Germany — Yesterday and Last 2 Weeks

Now
12 °F

Cold.


Feels Like: 4 °F
Forecast: 9 / 32 °F
Wind: 5 mph from West

Location: Altenstadt Airport

Current Time: Jan 22, 2017 at 11:43:12 pm

Latest Report: Jan 22, 2017 at 10:20 pm


Visibility: N/A

Pressure: 30.15 "Hg (27.85 "Hg at 609m altitude)

Humidity: 92%

Dew Point: 10 °F

Location of GeretsriedLocation

Past Weather in Geretsried — Graph

°F

Geretsried Temperature Yesterday

Maximum temperature yesterday: 25 °F (at 12:20 pm)
Minimum temperature yesterday: 3 °F (at 6:20 am)
Average temperature yesterday: 13 °F

High & Low Weather Summary for the Past Weeks

 TemperatureHumidityPressure
High37 °F (Jan 12, 10:20 am)100% (Jan 8, 9:20 pm)30.39 "Hg (Jan 8, 9:20 pm)
Low3 °F (Jan 21, 6:20 am)59% (Jan 13, 1:20 pm)29.39 "Hg (Jan 13, 1:20 am)
Average23 °F87%30.09 "Hg
* Reported Jan 7 10:20 pm — Jan 22 10:20 pm, Geretsried, Weather by CustomWeather, © 2017

Note: Actual official high and low records may vary slightly from our data, if they occured in-between our weather recording intervals... More about our weather records

Advertising

Geretsried Weather History for the Previous 24 Hours

Scroll right to see more
 ConditionsComfort  
Time TempWeatherWind HumidityBarometerVisibility
10:20 pm
Sun, Jan 22
12 °FCold.5 mph92%30.15 "HgN/A
9:20 pm16 °FCold.5 mph93%30.15 "HgN/A
8:20 pm14 °FCold.5 mph92%30.15 "HgN/A
7:20 pm18 °FCold.2 mph93%30.12 "HgN/A
6:20 pm23 °FCold.1 mph86%30.12 "HgN/A
5:20 pm25 °FCold.2 mph80%30.12 "HgN/A
4:20 pm25 °FCold.7 mph80%30.12 "HgN/A
3:20 pm27 °FChilly.3 mph86%30.12 "HgN/A
2:20 pm27 °FChilly.5 mph80%30.12 "HgN/A
1:20 pm25 °FCold.2 mph80%30.15 "HgN/A
12:20 pm23 °FCold.2 mph86%30.15 "HgN/A
11:20 am16 °FCold.2 mph86%30.18 "HgN/A
10:20 am16 °FCold.1 mph86%30.18 "HgN/A
9:20 am9 °FFrigid.1 mph92%30.18 "HgN/A
8:20 am3 °FFrigid.1 mph85%30.18 "HgN/A
7:20 am7 °FFrigid.1 mph92%30.18 "HgN/A
6:20 am7 °FFrigid.2 mph92%30.18 "HgN/A
5:20 am5 °FFrigid.3 mph85%30.21 "HgN/A
4:20 am7 °FFrigid.1 mph85%30.21 "HgN/A
3:20 am9 °FFrigid.1 mph85%30.21 "HgN/A
2:20 am9 °FFrigid.2 mph85%30.24 "HgN/A
1:20 am10 °FCold.2 mph85%30.24 "HgN/A
12:20 am10 °FCold.2 mph85%30.24 "HgN/A
11:20 pm
Sat, Jan 21
10 °FCold.2 mph92%30.27 "HgN/A
Weather by CustomWeather, © 2017

See weather overviewHow to use our weather pages